Change the Weather History Date:

Saturday, October 19, 2013

  Actual Average Record
Temperature  
Mean Temperature 65 °F -  
Max Temperature 75 °F - - ()
Min Temperature 55 °F - - ()
Growing Degree Days 15 (Base 50)    
Moisture  
Dew Point 56 °F    
Average Humidity 78    
Maximum Humidity 100    
Minimum Humidity 38    
Precipitation  
Precipitation 0.01 in - - ()
Sea Level Pressure  
Sea Level Pressure 29.93 in    
Wind  
Wind Speed 1 mph ()    
Max Wind Speed 6 mph    
Max Gust Speed -    
Visibility 7.2 miles    
Events Rain    
T = Trace of Precipitation, MM = Missing Value Source: Averaged Metar Reports

Daily Weather History Graph

Daily Weather History Graph

Search for Another Location

Airport or City:

Trip Planner

Search our weather history database for the weather conditions in past years. The results will help you decide how hot, cold, wet, or windy it might be!

Date:

Astronomy

Oct. 19, 2013 Rise Set
Actual Time 8:26 AM CEST 7:20 PM CEST
Civil Twilight 7:58 AM CEST 7:49 PM CEST
Nautical Twilight 7:25 AM CEST 8:22 PM CEST
Astronomical Twilight 6:53 AM CEST 8:54 PM CEST
Moon 7:37 PM CEST (10/19) 8:50 AM CEST (10/19)
Length of Visible Light 11h 50m
Length of Day
10h 53m
Full, 100% of the Moon is Illuminated
Oct 19
Full
Oct 27
Last Quarter
Nov 3
New
Nov 10
First Quarter
Nov 17
Full

Hourly Weather History & Observations

Time (CEST) Temp. Dew Point Humidity Pressure Visibility Wind Dir Wind Speed Gust Speed Precip Events Conditions
12:00 AM 59.0 °F 57.2 °F 94% 29.92 in - Calm Calm - N/A   Clear
1:00 AM 59.0 °F 55.4 °F 88% 29.89 in - Variable 1.2 mph - N/A   Clear
2:00 AM 57 °F 52 °F 76% 29.88 in 12 mi Calm Calm - -   Clear
2:00 AM 57.2 °F 55.4 °F 94% 29.89 in - Calm Calm - N/A   Clear
4:00 AM 57.2 °F 53.6 °F 88% 29.86 in - Variable 2.3 mph - N/A   Clear
5:00 AM 57.2 °F 53.6 °F 88% 29.89 in - Variable 2.3 mph - N/A   Clear
6:00 AM 59.0 °F 53.6 °F 82% 29.92 in - West 3.5 mph - N/A   Clear
7:00 AM 57.2 °F 55.4 °F 94% 29.92 in - Calm Calm - N/A   Clear
8:00 AM 56 °F 51 °F 77% 29.92 in 9 mi Calm Calm - -   Overcast
8:00 AM 55.4 °F 55.4 °F 100% 29.92 in - Calm Calm - N/A   Clear
9:00 AM 55.4 °F 55.4 °F 100% 29.95 in - Variable 1.2 mph - N/A   Clear
10:00 AM 57.2 °F 57.2 °F 100% 29.95 in 6.2 mi Calm Calm - N/A   Partly Cloudy
11:00 AM 62.6 °F 59.0 °F 88% 29.98 in 6.2 mi Variable 2.3 mph - N/A   Partly Cloudy
12:00 PM 66.2 °F 60.8 °F 83% 29.98 in 6.2 mi Calm Calm - N/A   Partly Cloudy
1:00 PM 69.8 °F 57.2 °F 64% 29.98 in 6.2 mi North 3.5 mph - N/A   Partly Cloudy
2:00 PM 71 °F 51 °F 38% 29.93 in 12 mi North 2.3 mph - -   Scattered Clouds
2:00 PM 75.2 °F 55.4 °F 50% 29.95 in 6.2 mi Calm Calm - N/A   Partly Cloudy
3:00 PM 75.2 °F 57.2 °F 53% 29.95 in 6.2 mi East 5.8 mph - N/A   Partly Cloudy
4:00 PM 73.4 °F 59.0 °F 61% 29.95 in 6.2 mi East 4.6 mph - N/A   Partly Cloudy
5:00 PM 77.0 °F 57.2 °F 50% 29.92 in 6.2 mi Variable 1.2 mph - N/A   Partly Cloudy
6:00 PM 73.4 °F 57.2 °F 57% 29.92 in 6.2 mi Variable 2.3 mph - N/A   Partly Cloudy
7:00 PM 68.0 °F 60.8 °F 78% 29.92 in 6.2 mi Calm Calm - N/A   Partly Cloudy
8:00 PM 65 °F 56 °F 65% 29.94 in 9 mi WSW 4.6 mph - - Rain Light Rain
8:00 PM 68.0 °F 60.8 °F 78% 29.95 in 6.2 mi SW 4.6 mph - N/A Rain Light Rain
9:00 PM 64.4 °F 60.8 °F 88% 29.95 in 6.2 mi Calm Calm - N/A   Scattered Clouds
10:00 PM 64.4 °F 59.0 °F 83% 29.98 in 6.2 mi Variable 1.2 mph - N/A   Partly Cloudy
11:00 PM 62.6 °F 57.2 °F 82% 29.98 in 6.2 mi Variable 1.2 mph - N/A   Partly Cloudy